COSMOS 2251 DEB, 38006

Orbit data source: Space-Track

COSMOS 2251 DEB, 38006 is space debris in LEO originally from a launch on Wed, 16 Jun 1993 UTC launched from the Plesetsk Missile And Space Complex (PKMTR). The debris from Iridium 33, an American commercial communications satellite, has been tracked extensively since its accidental collision with the defunct Russian satellite Cosmos 2251 in 2009. This event, occurring at high speed in low Earth orbit (LEO), generated thousands of pieces of space debris, significantly increasing the risk of further collisions. The Iridium 33 debris cloud has impacted space traffic management and orbital debris mitigation strategies, making it a subject of ongoing study in space situational awareness.

Loading next visibility...
Identifier
38006, 1993-036BRH
Orbit
LEO
Country
Flag of CISCIS
Related business
Manufacturer
Unknown
Mission
Spacecraft
Bus & Motor
Unknown
Mass
Unknown
Launch date (UTC)
1993-06-16 (33 years ago)
Launch vehicle
Unknown
Launch site
Plesetsk Missile And Space Complex (PKMTR)
Object type
Payload
Rocket body
Debris
Shape & HBR
Unknown shape, 0.1 m
Radar Cross Section
Small (<0.1 m²)

Expand to show TLE details & history
Last TLE update: 2 days ago

TLE from 2 days ago
0 COSMOS 2251 DEB
1 38006U 93036BRH 26161.97322105  .00005367  00000-0  13927-2 0  9998
2 38006  73.8461  57.0590 0067259 332.5554  27.2057 14.48631819655688
Epoch: 2026-06-10T23:21Z
TLE epoch observation values (Epoch: 2026-06-10T23:21:26.298Z)
Latitude
-0.00004°
Longitude
167.37572°
Altitude
690.277 km
Speed
7.534 km/s
True Right ascension
03h 48m 14s
True Declination
0° 00' 00"
Sunlit
Object was in daylight at epoch
Visualization orbit readout
Latitude
Unknown
Longitude
Unknown
Altitude
Unknown
Speed
Unknown
Apparent Right ascension
Unknown
Apparent Declination
Unknown
Sunlit
N/A
Visualization observer readout
Local Sidereal Time
04:11:45
Azimuth
Unknown
Elevation
Unknown
Doppler factor
Unknown
Orbital elements
Apogee altitude
775.54 km
Perigee altitude
679.953 km
Semi-major axis
7,105.884 km
Eccentricity
0.00673
Inclination
73.8461°
RAAN
57.059°
Arg. of periapsis
332.5554°
True anomaly
27.56072°
Mean anomaly
27.2057°
Eccentric anomaly
27.38294°
Mean motion
3.6234 °/min
Orbital period
99.35 mins
BSTAR
0.0013927

Documentation

Showing up to 5 results
|